Temp
74 73 73 73 72 73 74 75 75 76 76 76 75 76 75 76 76 76 75 75 74 72 72 72 72 72 75 72 74 75 75 75 75 75 75 75 75 75 74 74 73 73 73 73 73 73 73 73 74 74 74 74 74 69 70 72 72 71 70 70 70 71
74 74 74 74 74 73 74 74 72 73 73 74 75 76 74 73 75 73 75 73 72 73 71 71 71 75 71 73 73 75 75 75 75 75 74 75 75 74 74 74 73 73 73 72 73 68 69 72 74 74 74 75 69 68 69 72 71 71 70 69 69 72
74 75 75 74 74 73 73 73 73 73 73 74 75 74 73 74 73 73 72 72 72 71 71 72 72 73 73 74 73 75 75 75 75 75 74 75 75 75 74 74 73 73 72 72 69 67 67 68 68 74 74 70 67 69 73 72 71 70 69 69 68 74
72 72 71 71 72 72 73 73 72 72 72 72 72 73 73 73 73 73 72 71 70 69 68 68 73 77 77 73 73 75 75 75 75 75 74 73 75 75 75 74 73 73 72 70 67 67 69 68 68 69 68 68 68 70 72 71 70 70 69 72 71 74
70 70 70 71 72 70 71 70 70 71 71 71 71 72 72 72 71 71 72 71 69 68 68 68 68 68 70 71 70 70 70 70 70 69 73 69 69 72 71 69 69 70 66 68 68 68 69 70 70 71 70 69 70 72 72 71 71 69 69 69 69 74
70 69 69 70 70 71 70 69 68 69 70 70 70 70 68 68 69 69 69 69 69 68 67 67 67 67 68 68 70 70 70 70 69 70 71 69 69 69 69 70 69 69 68 68 69 70 70 70 70 70 70 70 71 73 71 70 70 69 68 67 71 74
69 68 69 70 70 70 69 69 68 69 69 69 69 69 69 69 69 68 69 69 68 68 67 67 67 68 68 68 68 69 69 70 70 70 70 70 69 70 69 70 69 69 69 70 71 73 73 73 72 73 72 74 72 73 70 70 69 69 67 67 72 74
68 68 68 69 69 68 68 69 70 71 69 69 68 68 69 68 69 69 69 69 69 69 68 67 67 67 68 68 68 69 69 69 70 71 71 71 70 69 69 70 71 70 71 72 73 74 75 76 74 73 75 74 73 73 70 69 69 68 67 67 70 73
69 69 69 69 69 69 69 69 69 69 68 71 68 68 68 68 68 69 69 69 69 67 67 67 67 67 68 68 68 68 68 68 70 71 72 71 72 71 70 71 71 72 71 73 73 74 76 77 74 73 74 74 72 71 70 69 69 69 68 66 68 71
69 69 69 69 68 69 69 68 69 69 69 70 68 68 69 68 68 68 68 69 69 68 68 68 67 68 67 68 68 68 68 67 68 70 71 72 73 72 72 72 72 73 74 73 74 76 74 75 77 73 72 72 71 72 70 69 69 68 68 67 67 70
69 70 69 68 68 69 69 69 69 69 69 69 69 69 69 68 68 68 68 69 69 69 68 68 68 69 68 68 68 68 68 68 67 67 69 72 73 72 72 72 73 72 73 73 73 73 73 74 76 75 71 73 72 72 71 71 69 69 68 67 67 67
69 69 69 69 69 69 69 69 69 69 69 69 69 68 68 68 69 68 69 69 68 68 68 68 68 68 68 67 67 67 67 67 67 68 68 70 69 68 69 70 72 74 72 73 72 74 75 73 73 75 74 73 72 71 70 71 70 69 68 67 66 67
69 69 69 69 69 69 69 70 69 68 69 71 69 69 68 68 68 69 69 69 69 69 68 67 67 68 69 68 67 67 67 68 68 68 68 69 68 67 67 67 69 71 72 73 73 72 76 72 72 72 74 72 73 72 72 71 69 69 68 67 67 66
69 68 68 69 69 69 70 69 69 69 70 69 69 68 68 68 69 69 69 69 69 69 69 69 69 68 68 68 68 67 67 67 68 68 68 68 67 67 66 66 67 69 71 71 70 71 70 71 70 71 71 72 72 71 71 71 70 69 68 68 67 66
70 69 70 69 69 69 70 70 70 70 70 70 70 68 67 68 69 69 69 69 69 69 70 70 69 68 68 68 67 67 67 67 68 68 68 68 67 67 66 66 67 68 70 71 70 71 71 68 67 67 66 64 65 66 69 71 70 69 68 68 67 67
69 68 69 69 69 70 70 70 71 72 70 70 69 68 67 67 67 68 69 68 69 69 70 71 69 69 68 68 67 66 66 67 68 67 67 67 67 67 66 66 67 67 67 69 69 70 69 67 65 64 65 65 66 66 65 67 70 70 69 68 68 67
69 69 69 69 69 70 70 70 71 71 70 68 68 67 67 68 68 68 68 68 68 69 70 70 70 70 68 68 67 67 67 68 68 67 67 67 66 66 66 67 66 67 67 67 67 67 64 65 64 64 64 65 65 65 65 65 66 69 70 68 68 68
70 70 70 70 70 70 70 71 70 71 70 68 68 68 68 68 67 67 67 68 69 69 69 68 69 69 68 68 68 67 67 67 67 66 66 66 66 66 66 66 66 67 67 67 67 67 64 64 64 64 64 65 66 65 65 65 65 67 68 68 68 68
70 70 70 70 71 70 71 70 70 69 68 69 70 69 68 67 67 67 68 68 68 69 69 69 69 69 68 68 67 67 67 67 67 66 65 65 65 66 66 66 66 66 67 67 66 66 63 63 65 65 65 65 65 64 65 65 65 65 66 68 68 70
69 69 70 69 69 69 69 68 67 67 67 68 69 68 68 67 67 67 68 68 68 67 68 69 69 69 68 68 67 67 67 67 66 66 65 64 65 65 65 66 66 66 66 66 67 65 64 64 64 64 63 64 64 64 65 65 65 65 66 67 68 68
68 69 68 68 68 67 67 67 67 67 66 67 68 69 69 68 68 67 68 68 68 67 67 68 69 69 68 69 68 68 67 67 66 66 65 65 66 66 66 66 66 66 65 65 65 65 64 65 63 61 61 61 62 64 65 65 64 65 66 65 66 66
68 69 69 68 68 68 68 67 67 67 67 67 68 67 68 68 68 69 68 68 67 67 67 67 68 67 68 67 67 67 67 67 66 65 65 65 65 67 66 66 66 64 65 64 63 64 65 64 61 60 59 58 59 62 63 64 65 65 66 66 66 66
70 69 68 68 67 67 68 69 68 69 68 68 69 71 70 70 70 69 68 68 68 67 67 67 68 68 68 68 67 67 66 66 66 66 65 64 65 65 65 66 65 64 63 64 63 64 64 65 60 61 61 59 56 57 60 61 64 65 66 65 66 65
69 67 67 68 67 68 69 69 69 69 69 69 68 69 70 70 69 68 68 68 68 67 67 67 68 68 68 68 67 67 66 66 66 66 65 64 65 65 65 65 65 65 65 62 62 62 64 64 63 61 56 57 57 57 55 58 61 63 65 65 65 66
69 68 67 67 67 67 67 66 66 67 67 68 69 69 68 67 68 67 68 66 67 68 67 67 67 68 68 67 67 67 67 67 66 66 66 65 65 65 65 65 65 64 65 64 62 62 63 64 64 65 61 57 56 54 56 58 60 60 63 63 64 65
69 69 69 69 69 68 67 66 65 65 63 62 63 65 65 65 65 65 66 67 67 68 68 67 67 67 68 67 67 67 67 67 66 67 67 66 66 64 65 65 65 65 65 65 64 62 62 64 64 65 64 63 62 57 57 58 59 56 62 64 64 65
68 67 68 68 68 68 67 67 66 65 65 64 64 65 66 66 66 66 67 67 68 67 68 67 67 68 68 68 68 67 67 67 67 67 68 67 66 65 65 66 66 65 65 65 64 62 62 62 63 64 65 64 63 62 62 60 57 57 57 60 62 63
67 66 66 67 67 67 66 66 66 67 67 66 66 66 67 66 66 66 66 67 68 67 68 68 68 68 69 69 68 67 67 67 67 67 67 67 66 66 66 66 66 66 66 64 64 63 62 63 62 62 64 63 63 63 63 62 61 60 57 57 59 62
65 65 66 67 68 68 68 68 67 67 67 68 68 68 67 66 66 66 66 65 65 66 67 67 68 68 67 68 67 67 67 67 66 66 66 65 66 66 66 65 65 65 65 64 64 64 63 63 63 63 62 62 63 62 63 63 62 61 57 56 56 59
63 63 64 66 67 67 68 68 66 66 66 66 68 68 68 65 64 65 65 65 65 64 64 64 65 65 65 66 66 66 66 67 66 65 65 65 65 66 66 65 65 65 65 64 64 64 63 63 64 64 63 63 62 63 62 62 61 60 60 59 56 58
62 62 63 63 64 65 66 67 66 66 66 65 66 66 66 66 66 66 65 64 64 64 64 64 64 64 64 64 64 66 65 64 64 65 65 65 65 65 66 66 66 65 65 64 64 64 64 64 64 64 64 63 63 63 63 62 62 61 60 57 57 58
61 62 62 63 62 62 62 63 64 65 65 64 64 64 65 65 65 66 66 65 63 63 63 63 63 62 63 64 64 64 64 64 64 63 64 64 65 66 65 65 65 65 65 65 65 65 65 64 64 64 64 64 64 64 64 63 63 63 61 60 60 59
60 61 62 62 62 61 61 61 62 62 62 63 62 63 65 65 65 65 66 65 64 63 63 63 63 63 63 63 63 63 63 62 63 63 64 64 65 66 64 64 64 64 64 64 65 65 64 64 65 63 64 65 65 64 64 63 63 62 62 61 60 58
59 60 61 61 61 61 61 62 63 63 63 63 61 63 64 64 65 65 66 65 65 65 63 62 63 62 63 63 63 63 64 64 64 64 65 65 65 64 64 63 64 64 64 65 64 63 64 64 64 64 64 63 64 65 64 64 63 62 62 61 59 59
58 59 59 60 61 60 60 62 64 64 63 63 63 63 63 63 64 64 64 65 65 65 63 63 62 63 64 63 64 64 64 64 64 64 65 65 65 64 64 63 64 64 63 64 65 64 63 64 63 63 64 63 64 64 64 64 63 63 63 63 62 61
59 59 59 60 60 60 60 62 64 64 63 63 63 64 64 64 63 63 63 63 64 64 65 64 63 63 64 64 64 64 64 64 64 64 64 63 63 63 64 64 64 64 63 65 63 62 63 63 63 63 63 64 63 63 64 64 64 64 63 63 63 62
60 60 60 59 60 60 61 62 63 64 63 62 62 62 62 62 62 61 62 62 62 63 64 65 65 65 64 63 64 64 64 64 64 64 64 64 63 62 63 63 63 63 63 64 63 63 63 63 63 63 63 63 63 64 63 63 63 64 64 63 63 63
MSLP
1015.26 1015.26 1015.38 1015.50 1015.70 1015.82 1016.02 1016.26 1016.46 1016.62 1016.82 1017.06 1017.30 1017.50 1017.66 1017.82 1017.98 1018.10 1018.14 1018.18 1018.22 1018.38 1018.54 1018.66 1018.78 1018.86 1018.82 1018.86 1018.94 1019.02 1019.22 1019.38 1019.50 1019.58 1019.62 1019.70 1019.74 1019.82 1019.94 1019.98 1019.98 1019.94 1019.94 1019.90 1019.94 1019.90 1019.78 1019.62 1019.50 1019.34 1019.22 1019.22 1019.30 1019.46 1019.46 1019.34 1019.46 1019.58 1019.70 1019.78 1019.82 1019.82
1015.06 1015.10 1015.26 1015.46 1015.62 1015.82 1016.10 1016.38 1016.50 1016.62 1016.82 1017.06 1017.26 1017.38 1017.58 1017.78 1017.90 1018.02 1018.06 1018.10 1018.18 1018.26 1018.38 1018.54 1018.66 1018.74 1018.86 1018.82 1018.90 1019.02 1019.18 1019.34 1019.50 1019.62 1019.66 1019.74 1019.78 1019.82 1019.90 1020.02 1020.02 1019.94 1019.90 1019.90 1019.90 1019.90 1019.78 1019.62 1019.46 1019.34 1019.30 1019.34 1019.50 1019.54 1019.54 1019.54 1019.58 1019.78 1019.94 1019.98 1019.94 1019.90
1014.94 1015.18 1015.34 1015.50 1015.66 1015.90 1016.14 1016.22 1016.30 1016.58 1016.90 1017.10 1017.18 1017.30 1017.58 1017.74 1017.90 1017.98 1018.06 1018.06 1018.10 1018.22 1018.30 1018.42 1018.50 1018.54 1018.70 1018.78 1018.82 1018.86 1019.06 1019.26 1019.46 1019.62 1019.70 1019.78 1019.82 1019.86 1019.90 1019.98 1020.06 1019.98 1019.90 1019.86 1019.82 1019.82 1019.74 1019.62 1019.54 1019.34 1019.22 1019.30 1019.58 1019.62 1019.62 1019.70 1019.70 1019.90 1020.06 1020.10 1020.06 1019.98
1015.30 1015.38 1015.58 1015.66 1015.62 1015.78 1015.78 1015.82 1016.06 1016.50 1016.90 1017.14 1017.18 1017.38 1017.66 1017.90 1018.02 1018.10 1018.14 1018.14 1018.22 1018.30 1018.38 1018.50 1018.46 1018.38 1018.46 1018.70 1018.82 1018.82 1018.86 1019.06 1019.30 1019.50 1019.66 1019.82 1019.86 1019.86 1019.90 1019.98 1020.06 1020.02 1019.94 1019.86 1019.82 1019.74 1019.70 1019.62 1019.50 1019.38 1019.30 1019.34 1019.66 1019.86 1019.86 1019.74 1019.86 1020.02 1020.10 1020.10 1020.18 1020.14
1015.42 1015.38 1015.26 1015.18 1015.42 1015.66 1015.74 1015.98 1016.30 1016.62 1016.94 1017.10 1017.30 1017.58 1017.82 1018.02 1018.18 1018.14 1018.10 1018.14 1018.34 1018.46 1018.46 1018.46 1018.62 1018.62 1018.62 1018.70 1018.90 1018.98 1018.94 1018.98 1019.10 1019.34 1019.50 1019.82 1019.90 1019.94 1019.94 1020.10 1020.14 1020.10 1020.02 1019.94 1019.90 1019.78 1019.70 1019.66 1019.50 1019.38 1019.34 1019.30 1019.66 1019.82 1020.02 1019.82 1019.90 1020.02 1020.14 1020.18 1020.18 1020.14
1015.50 1015.58 1015.46 1015.34 1015.70 1015.90 1016.10 1016.42 1016.66 1016.90 1017.14 1017.26 1017.42 1017.78 1018.02 1018.18 1018.22 1018.22 1018.26 1018.34 1018.30 1018.42 1018.70 1018.70 1018.66 1018.66 1018.70 1018.78 1018.98 1019.06 1018.98 1018.94 1019.02 1019.10 1019.22 1019.62 1019.82 1019.90 1019.98 1020.10 1020.18 1020.22 1020.06 1019.90 1019.86 1019.74 1019.66 1019.66 1019.54 1019.38 1019.30 1019.22 1019.50 1019.86 1019.90 1019.90 1019.90 1020.06 1020.22 1020.26 1020.22 1020.22
1015.94 1016.10 1016.22 1016.14 1016.34 1016.46 1016.66 1016.66 1016.82 1017.02 1017.18 1017.38 1017.46 1017.86 1018.14 1018.18 1018.22 1018.30 1018.34 1018.26 1018.26 1018.34 1018.66 1018.78 1018.66 1018.70 1018.70 1018.74 1018.90 1018.94 1018.94 1018.86 1018.90 1019.02 1019.02 1019.34 1019.62 1019.74 1019.86 1019.98 1020.10 1020.14 1020.02 1019.94 1019.78 1019.58 1019.50 1019.46 1019.42 1019.34 1019.26 1019.02 1019.30 1019.74 1019.78 1019.82 1019.90 1020.06 1020.26 1020.30 1020.30 1020.30
1016.18 1016.34 1016.42 1016.42 1016.70 1017.06 1017.14 1017.10 1017.14 1017.18 1017.38 1017.46 1017.58 1017.90 1018.10 1018.18 1018.18 1018.34 1018.38 1018.18 1018.10 1018.18 1018.30 1018.46 1018.62 1018.58 1018.54 1018.58 1018.78 1018.82 1018.78 1018.86 1018.82 1018.82 1018.86 1019.06 1019.38 1019.50 1019.62 1019.74 1019.86 1019.94 1019.94 1019.86 1019.78 1019.50 1019.34 1019.18 1019.10 1019.18 1019.06 1018.90 1019.02 1019.54 1019.74 1019.78 1019.86 1020.02 1020.18 1020.26 1020.30 1020.34
1016.26 1016.42 1016.46 1016.42 1016.70 1016.94 1017.14 1017.30 1017.30 1017.38 1017.58 1017.54 1017.66 1017.78 1017.94 1018.06 1018.22 1018.26 1018.26 1018.22 1018.22 1018.30 1018.10 1018.10 1018.10 1018.10 1018.30 1018.46 1018.54 1018.70 1018.78 1018.90 1018.90 1018.74 1018.70 1018.90 1019.02 1019.26 1019.42 1019.50 1019.62 1019.66 1019.66 1019.62 1019.50 1019.38 1019.14 1018.90 1018.78 1018.82 1018.74 1018.82 1018.98 1019.42 1019.62 1019.74 1019.86 1019.98 1020.10 1020.22 1020.30 1020.34
1016.30 1016.38 1016.42 1016.42 1016.62 1016.86 1017.02 1017.22 1017.30 1017.34 1017.46 1017.50 1017.58 1017.62 1017.74 1018.02 1018.22 1018.26 1018.22 1018.14 1018.18 1018.22 1018.10 1018.02 1018.02 1017.98 1018.18 1018.34 1018.50 1018.66 1018.78 1018.86 1018.90 1018.74 1018.70 1018.70 1018.62 1018.86 1019.14 1019.30 1019.38 1019.42 1019.46 1019.34 1019.30 1018.98 1018.86 1018.74 1018.58 1018.62 1018.66 1018.70 1018.74 1019.14 1019.46 1019.70 1019.86 1019.94 1020.06 1020.14 1020.22 1020.30
1016.22 1016.22 1016.26 1016.42 1016.70 1016.94 1016.98 1017.10 1017.14 1017.18 1017.26 1017.38 1017.38 1017.50 1017.66 1017.94 1018.22 1018.22 1018.14 1018.06 1018.22 1018.10 1018.06 1018.18 1018.10 1018.06 1018.10 1018.26 1018.50 1018.66 1018.78 1018.78 1018.86 1018.82 1018.66 1018.66 1018.42 1018.58 1018.82 1019.06 1019.14 1019.22 1019.30 1019.22 1019.02 1018.82 1018.66 1018.66 1018.46 1018.46 1018.58 1018.54 1018.58 1018.70 1019.26 1019.46 1019.66 1019.82 1019.98 1020.06 1020.18 1020.26
1016.22 1016.26 1016.38 1016.54 1016.66 1016.86 1016.94 1016.98 1017.02 1017.02 1017.10 1017.14 1017.30 1017.50 1017.62 1017.82 1018.06 1018.14 1018.02 1017.98 1017.90 1017.90 1017.94 1018.06 1018.14 1018.18 1018.22 1018.26 1018.46 1018.62 1018.66 1018.74 1018.66 1018.58 1018.66 1018.62 1018.62 1018.54 1018.58 1018.74 1018.98 1019.06 1018.94 1018.94 1018.90 1018.62 1018.50 1018.62 1018.50 1018.34 1018.46 1018.54 1018.42 1018.58 1018.94 1019.34 1019.62 1019.70 1019.86 1020.02 1020.14 1020.22
1016.42 1016.54 1016.58 1016.62 1016.70 1016.78 1016.90 1016.98 1017.06 1017.02 1016.86 1016.90 1017.22 1017.42 1017.58 1017.58 1017.70 1017.86 1017.90 1017.74 1017.62 1017.62 1017.66 1017.86 1018.02 1017.98 1017.98 1018.10 1018.26 1018.46 1018.58 1018.58 1018.54 1018.46 1018.58 1018.66 1018.70 1018.74 1018.50 1018.58 1018.74 1018.90 1019.10 1018.94 1018.86 1018.78 1018.54 1018.54 1018.58 1018.42 1018.46 1018.46 1018.42 1018.62 1018.94 1019.26 1019.50 1019.66 1019.78 1019.90 1020.02 1020.22
1016.62 1016.70 1016.66 1016.62 1016.66 1016.82 1016.90 1016.98 1016.98 1016.90 1016.78 1016.86 1017.14 1017.38 1017.54 1017.54 1017.50 1017.50 1017.58 1017.66 1017.62 1017.58 1017.58 1017.58 1017.70 1017.90 1018.02 1018.18 1018.30 1018.34 1018.46 1018.54 1018.50 1018.46 1018.50 1018.58 1018.82 1018.82 1018.62 1018.46 1018.62 1018.90 1019.02 1019.18 1019.14 1018.78 1018.74 1018.78 1018.70 1018.66 1018.66 1018.74 1018.70 1018.70 1018.78 1019.14 1019.30 1019.46 1019.58 1019.74 1019.90 1020.10
1016.66 1016.70 1016.70 1016.78 1016.82 1016.86 1016.90 1016.98 1017.02 1017.02 1016.98 1016.94 1016.94 1017.34 1017.46 1017.38 1017.42 1017.38 1017.38 1017.62 1017.90 1017.94 1017.90 1017.94 1018.06 1018.38 1018.38 1018.38 1018.46 1018.46 1018.42 1018.34 1018.30 1018.34 1018.46 1018.46 1018.58 1018.74 1018.70 1018.58 1018.62 1018.98 1018.98 1018.98 1018.98 1018.94 1018.82 1018.94 1019.14 1019.26 1019.38 1019.46 1019.94 1019.98 1019.66 1018.94 1019.14 1019.34 1019.54 1019.66 1019.82 1020.02
1016.70 1016.78 1016.78 1016.78 1016.78 1016.82 1016.86 1016.94 1016.98 1017.06 1017.18 1016.98 1016.58 1016.94 1017.46 1017.38 1017.42 1017.42 1017.42 1017.54 1017.74 1017.94 1018.02 1018.02 1018.22 1018.34 1018.38 1018.38 1018.42 1018.46 1018.30 1018.22 1018.22 1018.30 1018.42 1018.42 1018.50 1018.70 1018.74 1018.70 1018.66 1018.86 1019.22 1019.02 1018.98 1018.98 1019.14 1019.66 1019.46 1019.26 1019.26 1019.42 1019.50 1019.78 1020.66 1020.50 1019.22 1019.26 1019.34 1019.54 1019.78 1019.90
1016.78 1016.78 1016.82 1016.78 1016.78 1016.86 1016.86 1016.90 1016.98 1017.14 1017.46 1017.10 1016.46 1016.66 1017.22 1017.42 1017.46 1017.50 1017.46 1017.50 1017.58 1017.70 1017.74 1017.86 1017.90 1017.98 1018.18 1018.26 1018.26 1018.26 1018.14 1018.02 1018.06 1018.30 1018.34 1018.30 1018.46 1018.54 1018.70 1018.78 1018.70 1018.66 1018.90 1019.06 1018.86 1019.18 1019.90 1019.82 1019.98 1019.94 1019.82 1020.06 1020.34 1020.30 1019.78 1020.46 1020.62 1019.22 1019.26 1019.50 1019.70 1019.78
1016.62 1016.62 1016.70 1016.78 1016.82 1016.82 1016.82 1016.78 1016.90 1017.14 1017.62 1017.46 1016.94 1016.66 1016.94 1017.14 1017.34 1017.30 1017.34 1017.42 1017.42 1017.50 1017.54 1017.66 1017.78 1017.86 1017.98 1018.02 1017.98 1017.98 1017.94 1017.94 1017.98 1018.14 1018.30 1018.26 1018.26 1018.30 1018.50 1018.66 1018.78 1018.70 1018.70 1018.82 1018.82 1019.10 1019.74 1019.82 1019.94 1019.98 1019.46 1019.38 1019.70 1020.26 1020.26 1019.66 1020.30 1020.42 1019.30 1019.46 1019.58 1019.66
1016.46 1016.46 1016.54 1016.54 1016.58 1016.66 1016.66 1016.78 1016.82 1017.06 1017.50 1017.58 1017.26 1017.02 1017.10 1017.22 1017.18 1017.14 1017.14 1017.18 1017.22 1017.26 1017.34 1017.42 1017.50 1017.58 1017.78 1017.90 1017.94 1017.86 1017.86 1017.86 1017.90 1018.10 1018.26 1018.30 1018.26 1018.26 1018.38 1018.58 1018.78 1018.78 1018.58 1018.58 1018.66 1018.94 1019.26 1019.46 1019.50 1019.66 1019.50 1019.58 1019.74 1020.06 1020.58 1020.10 1019.42 1020.10 1019.90 1019.22 1019.34 1019.42
1016.46 1016.42 1016.42 1016.50 1016.54 1016.66 1016.78 1016.98 1017.26 1017.26 1017.58 1017.46 1017.18 1017.18 1017.22 1017.34 1017.34 1017.14 1017.02 1017.02 1017.06 1017.14 1017.14 1017.26 1017.30 1017.34 1017.50 1017.66 1017.82 1017.86 1017.90 1017.86 1017.98 1018.10 1018.30 1018.42 1018.38 1018.26 1018.30 1018.54 1018.74 1018.78 1018.78 1018.70 1018.74 1018.90 1018.94 1019.22 1019.42 1019.54 1019.74 1019.86 1019.86 1019.94 1020.18 1020.06 1019.62 1019.46 1019.62 1019.18 1019.18 1019.18
1016.62 1016.50 1016.66 1016.82 1016.86 1016.94 1017.10 1017.14 1017.14 1017.34 1017.42 1017.30 1017.22 1017.10 1017.02 1016.82 1016.82 1016.90 1016.94 1016.94 1017.02 1017.14 1017.18 1017.26 1017.26 1017.30 1017.46 1017.50 1017.58 1017.62 1017.70 1017.78 1017.82 1018.02 1018.14 1018.18 1018.10 1018.06 1018.06 1018.22 1018.46 1018.62 1018.78 1018.98 1019.06 1018.86 1018.82 1018.94 1019.46 1019.98 1019.90 1019.86 1019.94 1019.74 1019.74 1019.70 1019.66 1019.46 1019.34 1019.06 1018.98 1019.14
1016.66 1016.70 1016.70 1016.78 1016.86 1016.86 1016.82 1016.90 1017.06 1017.14 1017.06 1017.02 1017.14 1017.18 1017.10 1016.78 1016.66 1016.78 1016.94 1017.02 1017.10 1017.14 1017.14 1017.14 1017.14 1017.18 1017.30 1017.42 1017.58 1017.58 1017.54 1017.58 1017.62 1017.82 1017.90 1017.94 1018.06 1018.06 1018.18 1018.34 1018.42 1018.82 1018.74 1018.90 1019.10 1018.98 1018.90 1019.02 1019.82 1019.74 1020.26 1020.38 1020.18 1019.94 1019.74 1019.58 1019.46 1019.42 1019.22 1019.06 1018.94 1019.06
1016.78 1016.78 1016.78 1016.66 1016.78 1016.94 1016.78 1016.66 1016.74 1016.82 1016.82 1016.86 1016.54 1016.50 1016.46 1016.38 1016.46 1016.78 1016.90 1016.98 1017.02 1017.06 1017.02 1016.94 1016.86 1016.90 1017.10 1017.26 1017.42 1017.62 1017.66 1017.62 1017.58 1017.58 1017.78 1017.94 1017.98 1018.14 1018.22 1018.42 1018.54 1018.74 1019.06 1018.90 1018.98 1019.06 1019.02 1018.70 1019.38 1019.54 1019.70 1020.30 1020.74 1020.86 1019.98 1019.70 1019.38 1019.34 1019.14 1018.98 1018.90 1019.06
1016.90 1016.82 1016.86 1016.74 1016.74 1016.70 1016.62 1016.54 1016.50 1016.54 1016.46 1016.50 1016.62 1016.38 1016.38 1016.42 1016.58 1016.74 1016.94 1016.90 1016.94 1016.94 1016.86 1016.86 1016.74 1016.78 1016.86 1016.98 1017.18 1017.34 1017.50 1017.66 1017.74 1017.66 1017.74 1017.86 1017.90 1018.02 1018.14 1018.38 1018.58 1018.78 1018.86 1019.34 1019.26 1019.22 1019.02 1018.82 1018.86 1019.42 1020.58 1020.22 1020.34 1020.42 1020.62 1020.02 1019.62 1019.18 1018.94 1018.94 1018.94 1018.94
1017.02 1017.02 1016.98 1016.86 1016.78 1016.70 1016.66 1016.70 1016.58 1016.54 1016.50 1016.58 1016.46 1016.58 1016.74 1016.98 1016.90 1016.86 1016.86 1016.94 1016.90 1016.82 1016.82 1016.86 1016.78 1016.74 1016.78 1016.90 1016.98 1017.10 1017.22 1017.34 1017.54 1017.66 1017.82 1017.94 1017.86 1017.74 1017.74 1017.94 1018.22 1018.62 1018.78 1018.90 1019.26 1019.10 1019.02 1018.82 1018.78 1018.18 1018.66 1020.02 1020.58 1020.70 1019.90 1019.26 1019.38 1019.38 1018.98 1019.14 1018.98 1018.90
1017.26 1017.34 1017.34 1017.18 1016.98 1016.82 1016.86 1016.94 1017.02 1017.22 1017.42 1017.42 1017.42 1017.18 1017.30 1017.18 1017.14 1017.14 1016.98 1016.62 1016.70 1016.70 1016.74 1016.74 1016.66 1016.62 1016.62 1016.70 1016.90 1016.94 1017.06 1017.22 1017.30 1017.38 1017.50 1017.66 1017.66 1017.54 1017.46 1017.54 1017.66 1017.98 1018.38 1018.42 1018.58 1018.94 1019.06 1018.82 1018.58 1018.38 1018.02 1017.70 1017.86 1018.74 1019.38 1019.10 1019.42 1020.06 1019.10 1018.82 1018.86 1018.86
1017.70 1017.78 1017.62 1017.50 1017.26 1017.18 1017.22 1017.10 1017.10 1017.18 1017.30 1017.46 1017.58 1017.22 1016.82 1016.66 1016.74 1016.70 1016.62 1016.62 1016.58 1016.54 1016.50 1016.58 1016.58 1016.54 1016.54 1016.58 1016.66 1016.74 1016.86 1017.02 1017.06 1017.06 1016.98 1017.06 1017.14 1017.02 1016.82 1016.78 1016.90 1017.26 1017.58 1017.94 1018.30 1018.70 1018.74 1018.78 1018.78 1018.50 1018.14 1017.90 1017.86 1017.70 1017.74 1018.78 1019.54 1019.42 1019.94 1019.34 1018.98 1018.94
1017.86 1017.90 1017.82 1017.66 1017.54 1017.46 1017.54 1017.42 1017.42 1017.46 1017.46 1017.58 1017.66 1017.38 1016.98 1016.86 1016.70 1016.66 1016.66 1016.66 1016.58 1016.54 1016.46 1016.46 1016.50 1016.46 1016.42 1016.46 1016.50 1016.62 1016.66 1016.82 1016.94 1016.86 1016.82 1016.82 1016.78 1016.70 1016.62 1016.38 1016.30 1016.38 1016.78 1017.26 1017.74 1018.10 1018.26 1018.38 1018.66 1018.42 1018.18 1018.22 1018.06 1017.94 1017.74 1017.74 1017.86 1018.26 1018.74 1019.50 1019.38 1018.90
1018.14 1018.06 1017.94 1017.78 1017.74 1017.66 1017.66 1017.74 1017.82 1017.78 1017.78 1017.62 1017.46 1017.30 1017.02 1016.94 1017.06 1016.90 1016.90 1016.82 1016.74 1016.62 1016.54 1016.50 1016.50 1016.58 1016.54 1016.54 1016.58 1016.58 1016.62 1016.66 1016.74 1016.74 1016.78 1016.78 1016.78 1016.86 1016.94 1016.82 1016.58 1016.42 1016.46 1016.70 1017.02 1017.34 1017.70 1017.90 1018.06 1018.10 1018.30 1018.30 1018.18 1018.18 1018.06 1017.90 1017.90 1017.82 1018.26 1018.90 1019.18 1019.06
1018.34 1018.18 1018.06 1017.98 1017.94 1017.90 1017.82 1017.86 1018.02 1018.06 1018.06 1017.98 1017.70 1017.50 1017.30 1017.22 1017.14 1017.02 1017.10 1016.98 1016.90 1016.94 1016.94 1016.82 1016.66 1016.58 1016.50 1016.46 1016.46 1016.46 1016.50 1016.50 1016.62 1016.66 1016.70 1016.58 1016.58 1016.70 1016.82 1016.86 1016.74 1016.54 1016.34 1016.42 1016.50 1016.82 1017.14 1017.30 1017.42 1017.50 1017.62 1017.70 1018.14 1018.18 1018.34 1018.30 1018.14 1018.06 1018.06 1017.90 1018.38 1018.74
1018.50 1018.30 1018.18 1018.18 1018.06 1018.14 1018.06 1018.06 1018.18 1018.18 1018.22 1018.22 1018.06 1017.90 1017.82 1017.66 1017.42 1017.30 1017.30 1017.18 1017.14 1017.02 1016.90 1016.86 1016.70 1016.54 1016.50 1016.42 1016.38 1016.34 1016.42 1016.50 1016.62 1016.58 1016.54 1016.58 1016.58 1016.58 1016.54 1016.58 1016.50 1016.58 1016.62 1016.46 1016.30 1016.50 1016.82 1016.94 1017.10 1017.26 1017.34 1017.46 1017.50 1017.54 1017.58 1017.82 1017.82 1017.82 1017.86 1018.18 1018.26 1018.22
1018.66 1018.54 1018.42 1018.30 1018.22 1018.26 1018.26 1018.30 1018.34 1018.38 1018.46 1018.46 1018.38 1018.30 1018.14 1018.10 1017.90 1017.66 1017.46 1017.34 1017.18 1017.06 1017.02 1016.86 1016.78 1016.70 1016.62 1016.42 1016.34 1016.34 1016.38 1016.46 1016.54 1016.54 1016.50 1016.38 1016.42 1016.42 1016.54 1016.54 1016.34 1016.30 1016.34 1016.30 1016.34 1016.42 1016.50 1016.66 1016.70 1016.86 1017.02 1016.98 1016.98 1016.94 1017.02 1017.06 1017.06 1017.22 1017.54 1017.58 1017.62 1017.82
1018.78 1018.58 1018.54 1018.46 1018.46 1018.46 1018.46 1018.50 1018.58 1018.62 1018.62 1018.50 1018.46 1018.34 1018.26 1018.18 1017.98 1017.86 1017.62 1017.46 1017.26 1017.22 1017.02 1016.98 1016.82 1016.78 1016.58 1016.46 1016.38 1016.38 1016.34 1016.38 1016.38 1016.34 1016.30 1016.26 1016.22 1016.18 1016.22 1016.30 1016.30 1016.26 1016.26 1016.22 1016.18 1016.14 1016.14 1016.02 1016.14 1016.66 1016.70 1016.50 1016.50 1016.58 1016.62 1016.54 1016.66 1016.94 1017.02 1017.10 1017.30 1017.70
1018.82 1018.66 1018.62 1018.58 1018.66 1018.70 1018.66 1018.66 1018.62 1018.70 1018.66 1018.62 1018.54 1018.38 1018.26 1018.22 1018.06 1017.90 1017.74 1017.62 1017.42 1017.22 1017.14 1017.02 1016.82 1016.74 1016.50 1016.34 1016.30 1016.26 1016.18 1016.10 1016.02 1015.98 1015.90 1015.86 1015.90 1015.90 1015.86 1015.98 1016.10 1016.14 1016.06 1015.98 1015.94 1016.14 1016.02 1015.86 1015.94 1016.18 1016.34 1016.50 1016.38 1016.22 1016.26 1016.30 1016.42 1016.62 1016.90 1017.18 1017.38 1017.30
1018.86 1018.82 1018.78 1018.74 1018.74 1018.78 1018.78 1018.70 1018.66 1018.70 1018.70 1018.62 1018.58 1018.50 1018.38 1018.26 1018.22 1018.10 1017.90 1017.74 1017.46 1017.14 1016.98 1016.78 1016.66 1016.46 1016.30 1016.26 1016.14 1016.06 1015.98 1015.90 1015.82 1015.74 1015.70 1015.70 1015.82 1015.90 1015.58 1015.58 1015.78 1015.78 1015.82 1015.90 1015.86 1015.90 1015.98 1015.86 1015.78 1015.78 1015.86 1015.94 1015.98 1016.02 1016.06 1016.06 1016.18 1016.26 1016.30 1016.42 1016.50 1016.78
1018.98 1018.98 1018.86 1018.78 1018.78 1018.78 1018.82 1018.78 1018.74 1018.74 1018.74 1018.70 1018.62 1018.54 1018.46 1018.38 1018.30 1018.26 1018.10 1017.94 1017.70 1017.42 1017.10 1016.74 1016.46 1016.30 1016.14 1016.06 1016.02 1015.94 1015.82 1015.70 1015.54 1015.50 1015.50 1015.58 1015.82 1016.02 1015.74 1015.62 1015.62 1015.62 1015.66 1015.58 1015.78 1015.98 1015.94 1015.74 1015.74 1015.78 1015.78 1015.70 1015.78 1015.74 1015.74 1015.90 1015.94 1015.94 1015.94 1015.94 1016.10 1016.30
1019.10 1019.02 1018.98 1018.94 1018.86 1018.90 1018.90 1018.90 1018.86 1018.90 1018.90 1018.90 1018.82 1018.82 1018.78 1018.66 1018.50 1018.30 1018.18 1018.02 1017.90 1017.66 1017.30 1016.98 1016.70 1016.26 1016.06 1015.94 1015.86 1015.82 1015.78 1015.62 1015.50 1015.34 1015.26 1015.18 1015.50 1015.74 1015.54 1015.50 1015.54 1015.42 1015.30 1015.14 1015.38 1015.42 1015.54 1015.70 1015.66 1015.66 1015.74 1015.94 1015.86 1015.70 1015.82 1016.02 1016.10 1015.86 1015.74 1015.78 1015.86 1015.94
Wind_Speed
9 9 9 8 7 7 8 12 10 11 12 12 11 11 11 11 11 10 8 8 8 6 5 4 4 4 5 2 2 3 5 5 4 4 3 2 1 1 1 1 2 2 2 3 4 7 8 9 9 9 10 10 9 5 4 7 8 7 6 6 6 6
9 10 9 7 6 6 6 8 5 6 6 9 10 11 8 6 7 5 9 6 4 5 5 5 4 6 3 3 2 4 4 5 3 3 3 0 0 1 2 1 2 3 3 3 4 3 4 6 9 9 10 9 4 3 2 6 8 7 6 4 4 8
10 9 9 8 6 7 7 6 7 6 6 7 7 8 7 6 5 5 5 5 4 3 2 3 4 6 4 6 4 7 6 5 4 2 2 0 2 2 2 3 3 4 4 5 3 4 4 4 5 9 8 5 4 5 6 6 7 6 6 4 3 10
6 5 6 5 7 7 7 7 6 6 6 5 5 5 5 4 4 4 4 4 4 3 2 2 2 5 7 4 5 6 7 7 5 3 1 0 2 4 4 4 5 6 5 3 3 4 3 5 5 5 5 4 2 2 5 6 7 6 6 5 5 12
4 5 8 7 8 7 5 5 5 6 6 5 5 5 5 3 3 2 2 4 4 2 2 1 1 3 3 2 4 3 3 4 4 3 3 1 2 3 2 2 2 4 3 4 4 5 4 5 5 4 5 4 1 3 4 6 6 6 5 4 5 11
4 3 4 5 5 6 6 5 5 5 5 3 4 5 5 4 4 4 4 3 3 4 2 2 1 2 1 2 0 4 4 4 4 4 5 4 3 3 3 3 3 4 5 5 5 5 4 5 5 5 5 5 2 5 5 5 6 6 5 5 6 12
2 3 2 5 6 5 4 3 4 5 6 4 5 5 4 4 4 4 5 3 2 1 3 2 2 1 0 0 1 2 5 5 5 5 5 5 4 4 5 5 4 5 5 6 6 6 6 6 5 5 6 6 4 7 6 6 6 6 5 5 7 13
4 5 3 4 6 5 3 3 3 5 5 4 4 5 4 4 4 4 4 3 2 2 3 4 3 3 2 2 2 2 2 4 4 5 5 5 6 5 5 5 5 6 6 6 7 8 7 8 7 6 7 6 3 8 5 6 6 6 6 6 4 10
4 5 4 4 5 5 5 3 3 4 5 4 3 4 5 5 5 3 4 5 3 2 2 3 5 5 4 4 3 4 2 2 4 5 6 6 6 6 6 6 6 6 6 7 7 8 8 9 7 6 6 4 4 9 7 6 6 7 6 5 6 7
6 6 5 5 5 5 5 5 4 4 4 4 4 4 4 4 4 4 4 5 5 4 4 5 4 3 4 4 4 3 4 4 4 3 4 6 6 6 5 5 6 7 6 7 7 8 5 6 6 4 4 4 4 9 7 6 6 6 6 5 5 5
6 7 6 5 4 5 5 5 4 4 5 5 4 4 4 4 5 5 4 5 5 6 4 2 2 3 3 4 4 4 4 5 5 4 3 5 5 4 3 4 6 6 6 7 7 6 6 5 5 3 3 4 3 5 9 7 7 6 6 6 5 4
5 6 5 6 5 6 6 6 5 4 5 5 5 4 3 4 5 5 6 5 6 6 5 5 5 5 5 5 5 4 4 4 6 6 3 4 1 1 3 2 3 5 5 6 6 5 4 3 4 5 5 3 3 2 7 8 7 7 6 6 5 5
4 4 4 5 5 5 5 5 5 4 4 5 5 4 4 4 5 6 6 6 4 5 5 6 6 6 5 5 5 4 4 5 5 5 4 2 1 0 1 1 1 3 7 6 4 4 5 2 4 4 4 4 5 3 6 8 7 7 7 7 6 5
5 5 4 3 4 5 5 5 5 5 4 4 5 5 4 4 4 4 5 6 4 4 3 2 1 1 2 3 4 5 5 5 5 5 3 3 4 2 2 3 2 2 5 7 6 5 4 5 4 2 1 1 2 2 5 8 8 8 8 7 6 6
5 4 5 4 4 4 4 6 5 5 4 4 5 5 4 5 4 3 3 3 5 3 3 4 3 2 3 3 3 3 4 5 4 5 4 3 4 3 4 5 4 4 4 6 3 5 4 2 4 5 6 6 5 11 8 6 7 8 7 7 6 6
5 4 4 4 4 4 4 5 6 5 4 1 4 4 5 3 2 2 2 2 3 4 4 5 6 5 5 4 4 4 5 3 3 3 4 4 3 4 5 5 5 4 4 6 3 7 6 7 2 3 4 4 1 3 4 9 4 7 8 7 7 6
7 5 4 4 4 4 4 4 5 6 5 2 5 2 4 4 3 3 3 4 3 3 4 4 5 6 5 5 5 5 4 4 3 4 4 5 4 4 4 5 5 5 4 6 2 2 6 3 4 6 7 8 8 4 2 0 11 3 7 7 7 7
6 6 6 6 5 5 5 4 4 7 8 5 5 4 1 4 4 4 4 4 5 4 4 3 4 5 5 5 5 5 4 4 3 3 4 5 6 5 5 5 6 4 4 5 5 3 6 4 3 2 2 3 0 3 3 2 1 10 4 7 7 8
5 4 5 4 4 4 4 4 4 5 5 6 6 5 3 3 3 4 5 5 5 5 6 5 5 5 6 5 4 4 4 4 3 4 4 4 4 5 6 5 5 4 2 4 3 3 5 5 4 4 2 2 3 1 5 3 4 3 5 6 7 7
3 3 3 3 3 3 5 5 4 3 4 5 4 4 4 6 6 6 6 5 5 4 4 5 5 5 6 6 5 4 4 4 4 4 4 4 5 6 7 6 5 5 4 2 1 4 4 5 3 3 1 2 3 3 4 3 1 3 6 4 5 6
3 4 3 4 2 2 1 2 2 5 4 5 5 4 4 4 3 5 5 4 4 4 4 4 4 5 5 5 6 5 5 5 4 4 5 6 7 7 6 6 6 4 5 3 1 2 3 6 6 2 1 2 2 3 4 3 4 3 4 4 4 6
3 4 4 3 3 3 2 1 1 2 2 3 4 5 6 5 6 5 5 4 4 4 4 5 4 3 5 6 5 5 6 6 6 5 5 3 3 3 3 4 4 3 3 5 3 4 6 7 1 5 4 1 2 4 5 4 4 5 6 3 4 5
4 4 3 3 3 3 1 1 1 0 0 1 1 6 5 6 5 5 5 5 5 5 5 5 5 4 5 5 5 4 5 4 5 5 4 4 3 3 3 4 4 4 3 2 1 3 6 6 5 4 3 4 2 2 4 3 4 6 6 4 4 5
4 3 3 3 3 1 1 0 0 1 1 2 1 1 4 4 3 3 4 4 5 6 5 5 4 4 4 4 5 5 5 5 5 4 4 4 5 5 4 4 3 4 3 4 3 5 6 7 4 9 3 4 2 2 2 7 7 5 6 5 5 6
5 4 4 3 3 3 2 3 2 3 1 1 2 2 0 2 3 4 2 3 5 5 5 5 4 4 4 5 4 5 5 5 4 4 3 3 5 6 6 6 6 5 7 7 6 4 5 7 6 9 8 4 1 1 5 2 5 4 4 4 5 5
8 8 7 7 6 5 3 2 2 4 4 3 2 1 1 2 3 3 5 3 3 5 4 4 5 5 4 4 5 5 5 5 5 5 5 5 5 5 6 7 8 8 8 8 5 5 5 5 7 9 6 6 7 6 5 3 5 4 2 4 5 5
7 6 7 7 7 7 7 6 4 3 3 3 2 2 2 2 1 2 2 3 4 4 4 5 4 4 5 5 5 5 5 5 6 6 6 7 7 8 8 8 7 8 8 7 4 6 7 7 5 7 7 6 2 1 5 6 5 3 4 3 4 6
7 7 6 6 7 7 6 7 8 7 5 4 4 5 4 2 1 2 3 2 1 2 3 3 4 5 5 5 6 6 6 6 6 6 6 7 7 7 6 7 8 9 8 7 7 8 7 6 10 8 6 7 6 2 3 2 3 7 5 5 5 3
6 5 6 7 7 8 7 7 6 6 6 4 3 3 4 3 3 3 4 4 2 0 1 1 1 1 2 2 3 4 4 6 6 5 4 5 6 6 7 6 7 8 9 8 8 8 5 7 8 7 6 7 6 5 4 5 2 3 3 4 3 7
5 4 4 6 6 8 8 7 8 8 9 8 8 6 4 3 2 2 3 3 3 3 3 3 3 2 3 2 3 3 4 5 4 3 3 6 6 6 7 7 7 8 8 9 7 8 8 7 7 6 7 7 8 6 5 4 4 4 1 2 5 7
5 4 4 5 6 7 7 7 7 8 9 9 9 8 8 6 4 4 3 3 2 4 4 4 3 4 3 3 3 4 4 3 2 3 4 5 6 6 6 7 7 7 6 8 7 8 8 6 6 7 7 7 9 10 10 10 9 7 5 3 2 4
5 5 5 5 5 5 5 6 6 7 7 7 8 7 8 8 8 7 6 4 3 3 3 4 3 3 4 4 3 3 2 3 4 4 5 5 5 6 5 5 7 7 8 9 7 7 7 9 9 8 8 7 8 8 8 7 7 8 8 7 8 6
5 5 6 5 5 5 5 5 5 5 5 5 5 6 6 7 6 7 7 6 5 4 5 5 5 4 4 4 3 5 4 3 4 5 5 6 5 4 2 5 6 7 7 8 9 10 9 10 9 6 8 8 7 7 8 6 5 7 7 6 7 6
4 4 5 6 6 6 6 6 6 6 6 6 6 6 6 5 6 6 6 7 6 5 4 5 5 5 5 4 3 4 5 5 4 5 5 6 6 5 7 7 7 7 7 8 8 7 8 8 6 8 8 7 8 7 7 5 6 6 7 6 6 7
4 4 5 6 6 7 5 6 7 6 6 5 5 6 6 6 6 8 8 7 7 6 5 5 5 5 4 5 5 5 5 5 5 5 5 5 4 6 8 8 6 7 7 6 7 8 9 9 9 11 11 9 8 7 7 6 6 7 7 8 8 7
5 4 4 5 6 5 6 6 7 7 6 5 6 6 6 7 7 7 7 8 9 10 8 6 5 4 5 4 5 5 5 6 6 5 4 2 2 1 5 5 6 6 8 6 5 5 7 8 9 9 9 8 8 9 7 6 7 7 7 7 6 6
6 7 7 5 6 5 7 7 7 8 8 7 6 7 7 8 8 6 6 7 7 8 8 9 8 5 5 4 4 5 5 6 6 6 5 6 3 5 7 6 6 7 8 7 7 9 8 8 8 8 7 9 9 8 6 6 7 7 7 6 6 6
Wind_Direction
158 159 157 153 149 147 150 142 137 138 138 134 128 118 115 119 118 117 116 114 111 118 118 126 130 141 129 104 122 95 104 92 77 71 71 44 133 166 148 167 157 183 223 253 287 298 304 304 308 316 324 334 355 23 45 103 99 100 100 107 111 114
160 163 154 150 148 145 138 138 136 144 140 137 135 128 128 130 126 131 125 123 141 141 143 148 163 150 145 156 146 121 125 100 86 86 64 34 292 219 221 195 222 221 230 245 263 288 296 305 310 311 306 314 353 4 77 103 105 105 105 105 117 122
162 159 152 149 150 144 143 152 156 147 136 135 141 133 136 139 144 144 145 150 149 122 119 154 167 155 171 155 159 148 138 122 102 91 105 41 251 235 203 215 236 246 245 248 249 266 282 293 300 303 309 334 0 3 102 110 104 106 109 112 110 120
147 121 111 138 146 147 159 166 157 144 135 142 147 139 135 143 144 156 151 149 114 108 87 32 352 173 166 140 146 158 151 138 123 118 133 201 279 245 232 230 238 251 258 271 273 271 269 273 282 287 301 313 28 5 115 111 109 114 117 123 121 126
124 135 143 158 150 149 140 124 119 133 135 141 143 131 134 116 88 114 151 128 110 104 125 101 80 31 27 108 140 150 137 139 139 138 165 168 246 262 205 199 230 252 262 261 266 271 257 257 252 268 279 284 69 118 118 112 116 117 123 122 129 133
143 136 151 144 118 118 111 111 107 100 99 86 113 95 84 92 102 84 71 64 97 130 111 90 70 67 70 10 198 175 174 171 170 167 157 190 197 228 202 224 207 230 250 257 254 261 259 252 241 239 256 266 121 127 129 115 119 120 126 138 141 135
108 74 45 30 45 61 83 94 92 97 104 112 106 107 109 106 118 120 102 100 128 128 120 152 138 111 114 103 305 224 194 190 183 183 173 174 200 203 201 214 218 218 233 246 254 251 251 242 230 221 233 248 138 143 137 131 127 128 134 137 142 142
86 88 77 59 67 66 67 77 93 93 89 120 102 105 112 125 124 120 121 139 152 156 160 157 149 167 193 179 221 254 241 210 197 189 182 182 196 198 206 210 221 218 220 230 240 246 246 239 227 208 208 220 143 140 135 133 132 135 137 141 146 154
123 115 106 104 102 112 117 99 94 101 111 130 135 129 133 141 141 146 152 143 143 151 185 176 189 183 183 194 201 214 250 245 234 206 187 194 195 198 202 211 220 225 219 231 234 244 236 223 219 195 195 205 128 139 144 140 140 141 144 143 146 161
126 125 129 128 139 124 126 127 131 133 142 139 174 165 147 142 144 151 166 160 163 173 197 197 206 202 176 191 195 201 205 240 259 250 220 200 198 192 203 212 222 225 231 237 243 253 236 211 215 184 185 157 121 134 135 136 141 144 143 143 152 165
134 139 140 137 131 131 137 141 152 153 151 161 168 166 160 138 141 166 177 183 157 165 187 176 217 221 204 194 186 187 203 202 232 257 262 231 201 172 190 229 226 212 222 244 250 256 236 209 199 192 144 147 160 136 136 144 148 144 145 151 151 147
142 147 141 145 146 145 147 151 155 162 167 154 151 164 166 139 161 175 179 186 173 179 172 179 204 216 199 196 191 187 198 193 217 218 231 252 66 60 122 134 311 275 226 236 256 259 265 230 197 198 157 171 151 176 119 150 148 146 146 152 149 148
132 135 137 151 147 142 142 140 150 170 181 159 148 156 169 176 184 180 174 178 182 182 190 190 197 200 179 184 186 179 189 202 212 214 208 217 93 289 87 96 250 305 300 271 236 263 272 247 235 209 170 181 162 186 125 148 149 148 155 158 156 149
134 141 151 140 132 139 144 140 153 170 180 170 170 161 170 197 207 187 170 171 172 184 210 235 239 233 168 175 187 189 191 205 206 214 196 172 151 185 167 147 206 273 275 286 273 246 272 273 272 316 233 353 8 193 153 151 154 162 158 161 158 155
139 144 144 144 143 152 143 149 159 164 169 192 197 160 168 182 194 208 190 163 153 180 216 196 177 199 208 188 189 196 205 211 203 203 196 182 169 184 192 184 184 222 257 254 253 286 246 307 47 52 37 77 337 352 334 147 156 155 160 155 156 160
127 127 128 151 153 145 151 160 158 158 148 201 243 169 147 176 149 158 182 186 174 176 195 188 167 191 182 192 191 199 216 218 202 200 195 204 183 188 202 203 198 188 254 272 183 249 340 17 353 77 93 79 67 71 23 311 154 148 156 152 159 161
142 150 156 164 148 142 166 167 161 140 121 180 261 261 128 148 160 169 190 178 184 197 199 181 186 177 173 185 195 196 210 222 197 192 200 195 185 183 194 203 201 199 217 247 230 115 98 51 38 32 30 30 0 346 122 313 310 128 144 152 161 162
152 160 163 169 172 172 173 174 139 130 144 165 238 252 120 132 158 189 192 188 181 180 185 178 183 172 172 191 194 196 195 214 212 200 206 193 191 180 189 200 210 212 215 230 235 131 113 125 109 107 141 110 136 309 304 145 65 307 143 153 156 168
134 147 144 150 154 155 160 149 131 113 102 160 200 205 172 177 198 196 205 188 187 186 181 187 192 179 174 181 189 202 200 212 213 204 197 194 189 185 189 199 210 218 233 235 209 116 140 136 127 142 131 89 69 333 286 286 164 239 274 160 167 171
123 132 133 134 126 128 146 149 132 107 138 204 186 191 201 195 181 194 198 192 189 188 187 188 193 190 178 176 180 196 206 213 216 207 197 193 201 195 194 191 204 203 218 240 154 143 150 127 120 109 105 148 176 216 252 253 256 190 249 155 169 155
88 90 89 91 83 101 97 133 133 165 187 195 191 193 213 237 204 179 180 192 191 195 206 207 201 193 187 178 181 190 196 211 214 209 205 212 207 209 200 188 187 192 194 190 115 156 154 134 128 69 53 276 223 208 241 242 249 259 246 173 170 148
72 66 62 69 100 91 108 139 154 170 186 182 166 175 201 204 203 191 182 184 191 200 206 207 211 201 190 187 187 194 201 205 205 209 213 226 243 228 204 200 171 171 213 189 169 174 159 125 165 166 156 237 301 291 262 247 241 244 241 201 163 162
79 87 68 65 77 99 100 31 81 237 112 276 212 186 188 195 192 180 181 174 181 198 202 205 209 208 194 194 194 197 214 218 216 211 206 208 206 222 214 214 193 183 184 200 162 184 184 187 157 156 113 98 227 237 274 250 243 234 225 206 177 170
78 75 71 56 74 92 137 233 199 176 222 202 223 165 162 187 179 174 193 172 177 191 202 205 208 213 207 196 192 197 205 217 228 224 216 199 194 209 204 214 210 213 178 187 203 208 204 212 159 141 160 189 189 170 245 237 207 225 204 205 180 192
62 57 52 47 46 32 35 18 1 351 345 320 333 338 56 148 187 194 195 190 196 188 197 200 206 217 213 205 198 204 203 208 213 222 227 225 213 211 203 192 196 202 206 204 206 206 213 209 202 190 145 123 51 251 230 231 169 244 192 202 211 194
52 38 31 19 6 4 14 49 34 23 3 11 0 357 189 221 207 204 212 214 189 184 196 202 198 209 224 209 206 201 202 204 207 207 207 216 230 225 216 199 194 196 216 225 205 194 209 221 212 210 216 194 164 175 180 211 131 228 201 221 199 203
53 45 32 21 21 20 15 5 17 13 1 7 358 287 277 248 181 241 258 212 198 186 188 197 215 214 226 226 211 203 203 206 208 211 211 208 211 215 216 208 190 193 206 206 188 207 208 203 223 243 231 240 252 160 150 137 202 107 189 223 201 197
44 45 33 28 25 22 23 15 16 11 8 359 320 290 297 315 10 1 20 12 313 267 228 214 219 223 220 220 209 206 205 210 215 221 219 223 220 218 220 217 200 198 190 182 197 209 209 192 194 217 217 236 246 222 201 190 162 176 162 170 202 219
45 40 34 33 31 26 30 30 24 14 17 8 1 333 317 7 25 347 352 343 38 326 272 303 333 304 293 316 267 234 219 216 215 224 224 233 237 229 223 224 217 205 198 194 193 205 198 208 209 214 186 227 229 224 213 226 193 156 149 153 197 187
42 43 41 38 37 37 34 31 31 22 20 12 5 360 351 344 326 348 2 333 314 358 7 354 335 348 328 306 290 258 223 222 232 238 240 239 240 236 232 226 226 224 215 203 197 198 205 210 215 216 203 195 198 206 210 221 222 199 224 184 176 194
32 34 36 43 46 45 38 32 29 25 23 16 9 5 3 10 353 349 322 322 339 331 330 319 312 297 289 283 289 280 256 217 198 209 225 244 251 249 239 228 223 222 224 219 209 202 210 212 212 221 215 200 204 198 196 196 201 200 182 180 184 206
38 42 31 34 51 54 55 41 36 30 30 22 11 7 2 3 357 356 346 322 321 308 290 282 286 296 300 301 292 298 273 226 223 218 231 230 239 252 272 273 239 218 215 225 229 217 213 217 211 212 222 215 214 211 213 207 201 194 192 204 189 197
47 50 46 35 38 42 46 50 49 44 35 19 12 7 3 354 352 346 340 338 330 312 305 312 304 300 284 278 286 292 288 231 211 213 226 226 226 229 250 259 264 244 227 218 217 216 218 219 216 214 222 219 220 216 217 213 191 195 210 194 188 191
36 49 50 48 41 40 42 46 53 47 34 15 4 355 348 346 338 337 342 340 326 300 293 284 288 282 272 268 258 255 268 266 238 224 223 228 218 211 236 240 248 260 248 231 230 232 234 229 218 224 238 234 235 222 220 200 197 189 192 181 202 200
37 37 53 57 54 46 39 43 41 37 30 25 8 359 347 343 354 353 347 337 328 309 277 280 275 277 278 270 271 269 254 256 256 243 228 240 228 203 230 235 232 238 256 280 257 214 224 234 230 228 228 226 230 230 227 211 194 200 186 196 194 187
51 45 44 60 64 52 41 49 37 29 22 21 12 9 4 3 0 355 346 346 343 342 323 289 285 283 275 268 273 271 267 267 271 270 273 274 212 260 254 238 245 236 237 227 233 256 259 252 248 243 242 240 230 234 228 227 212 203 202 196 194 177
59 45 35 32 54 46 49 37 33 36 25 12 16 16 12 1 351 345 354 358 353 341 342 340 321 297 291 281 280 286 275 262 265 266 261 255 224 185 249 251 233 234 236 230 242 242 201 216 239 246 245 247 247 237 219 245 244 222 209 200 196 190